This is the latest recevied weather packets stored in our database for station/object AE5EW. If no packets are shown the sender has not sent any weather packets the latest 10 day(s).
| Time | Temp. | Humidity | Pressure | Rain* | Wind** | Luminosity | Snow |
|---|---|---|---|---|---|---|---|
| 1787522260 | 34.44° C | 52% | 1015.3 hPa | 0 mm | - | - | - |
| 1787521955 | 34.44° C | 53% | 1015.3 hPa | 0 mm | - | - | - |
| 1787521654 | 35° C | 51% | 1015.4 hPa | 0 mm | - | - | - |
| 1787521353 | 34.44° C | 51% | 1015.4 hPa | 0 mm | - | - | - |
| 1787521048 | 35.56° C | 52% | 1015.3 hPa | 0 mm | - | - | - |
| 1787520744 | 36.11° C | 53% | 1015.5 hPa | 0 mm | - | - | - |
| 1787520439 | 35° C | 56% | 1015.5 hPa | 0 mm | - | - | - |
| 1787520135 | 35° C | 52% | 1015.6 hPa | 0 mm | - | - | - |
| 1787519831 | 35° C | 54% | 1015.4 hPa | 0 mm | - | - | - |
| 1787519526 | 34.44° C | 49% | 1015.4 hPa | 0 mm | - | - | - |
| 1787519221 | 34.44° C | 56% | 1015.5 hPa | 0 mm | - | - | - |
| 1787518916 | 35.56° C | 50% | 1015.5 hPa | 0 mm | - | - | - |
| 1787518610 | 35.56° C | 49% | 1015.6 hPa | 0 mm | - | - | - |
| 1787518306 | 35° C | 50% | 1015.5 hPa | 0 mm | - | - | - |
| 1787518002 | 35° C | 51% | 1015.6 hPa | 0 mm | - | - | - |
| 1787517698 | 35° C | 50% | 1015.5 hPa | 0 mm | - | - | - |
| 1787517393 | 35.56° C | 48% | 1015.4 hPa | 0 mm | - | - | - |
| 1787517090 | 34.44° C | 49% | 1015.7 hPa | 0 mm | - | - | - |
| 1787516789 | 35.56° C | 48% | 1015.8 hPa | 0 mm | - | - | - |
| 1787516484 | 35° C | 50% | 1015.8 hPa | 0 mm | - | - | - |
| 1787516184 | 35.56° C | 52% | 1015.9 hPa | 0 mm | - | - | - |
| 1787515879 | 34.44° C | 50% | 1015.8 hPa | 0 mm | - | - | - |
| 1787515575 | 35° C | 53% | 1016 hPa | 0 mm | - | - | - |
| 1787515276 | 34.44° C | 55% | 1015.8 hPa | 0 mm | - | - | - |
| 1787514970 | 33.89° C | 58% | 1016 hPa | 0 mm | - | - | - |
* Rain latest hour (hover to see other rain measurements)
** Current wind speed in m/s (hover to see current wind gust speed)